TimeEDT,TemperatureF,Dew PointF,Humidity,Sea Level PressureIn,VisibilityMPH,Wind Direction,Wind SpeedMPH,Gust SpeedMPH,PrecipitationIn,Events,Conditions,WindDirDegrees,DateUTC
12:15 AM,41.0,41.0,100,30.02,10.0,Calm,Calm,-,N/A,,Clear,0,2012-11-02 04:15:00
12:35 AM,41.0,41.0,100,30.02,10.0,Calm,Calm,-,N/A,,Clear,0,2012-11-02 04:35:00
12:55 AM,41.0,41.0,100,30.02,10.0,Calm,Calm,-,N/A,,Clear,0,2012-11-02 04:55:00
1:15 AM,42.8,41.0,93,30.02,10.0,Calm,Calm,-,N/A,,Clear,0,2012-11-02 05:15:00
1:35 AM,41.0,41.0,100,30.02,10.0,Calm,Calm,-,N/A,,Clear,0,2012-11-02 05:35:00
1:55 AM,41.0,41.0,100,30.02,10.0,Calm,Calm,-,N/A,,Clear,0,2012-11-02 05:55:00
2:15 AM,41.0,39.2,93,30.03,10.0,Calm,Calm,-,N/A,,Clear,0,2012-11-02 06:15:00
2:35 AM,41.0,41.0,100,30.03,10.0,Calm,Calm,-,N/A,,Clear,0,2012-11-02 06:35:00
2:55 AM,41.0,41.0,100,30.03,10.0,Calm,Calm,-,N/A,,Clear,0,2012-11-02 06:55:00
3:15 AM,41.0,41.0,100,30.03,10.0,Calm,Calm,-,N/A,,Clear,0,2012-11-02 07:15:00
3:35 AM,41.0,41.0,100,30.03,10.0,Calm,Calm,-,N/A,,Clear,0,2012-11-02 07:35:00
3:55 AM,41.0,41.0,100,30.03,10.0,Calm,Calm,-,N/A,,Clear,0,2012-11-02 07:55:00
4:15 AM,39.2,39.2,100,30.03,10.0,Calm,Calm,-,N/A,,Clear,0,2012-11-02 08:15:00
4:35 AM,39.2,39.2,100,30.03,10.0,Calm,Calm,-,N/A,,Clear,0,2012-11-02 08:35:00
4:55 AM,39.2,39.2,100,30.03,10.0,Calm,Calm,-,N/A,,Clear,0,2012-11-02 08:55:00
5:15 AM,39.2,39.2,100,30.03,10.0,Calm,Calm,-,N/A,,Clear,0,2012-11-02 09:15:00
5:35 AM,37.4,37.4,100,30.03,10.0,Calm,Calm,-,N/A,,Clear,0,2012-11-02 09:35:00
5:55 AM,37.4,37.4,100,30.04,9.0,Calm,Calm,-,N/A,,Clear,0,2012-11-02 09:55:00
6:15 AM,37.4,37.4,100,30.04,8.0,Calm,Calm,-,N/A,,Clear,0,2012-11-02 10:15:00
6:50 AM,37.4,37.4,100,30.05,10.0,Calm,Calm,-,N/A,,Clear,0,2012-11-02 10:50:00
8:50 AM,42.8,42.8,100,30.08,10.0,Calm,Calm,-,N/A,,Clear,0,2012-11-02 12:50:00
9:50 AM,55.4,44.6,67,30.10,10.0,Calm,Calm,-,N/A,,Clear,0,2012-11-02 13:50:00
11:50 AM,68.0,37.4,33,30.10,10.0,Calm,Calm,-,N/A,,Clear,0,2012-11-02 15:50:00
12:50 PM,73.4,39.2,29,30.06,10.0,Variable,3.5,-,N/A,,Clear,0,2012-11-02 16:50:00
1:50 PM,75.2,42.8,31,30.04,10.0,West,11.5,-,N/A,,Clear,270,2012-11-02 17:50:00
2:50 PM,75.2,44.6,34,30.01,10.0,West,5.8,-,N/A,,Clear,270,2012-11-02 18:50:00
3:50 PM,77.0,44.6,32,29.99,10.0,West,17.3,-,N/A,,Clear,260,2012-11-02 19:50:00
4:50 PM,75.2,44.6,34,29.98,10.0,West,12.7,-,N/A,,Clear,270,2012-11-02 20:50:00
6:50 PM,64.4,51.8,64,29.99,10.0,Variable,3.5,-,N/A,,Clear,0,2012-11-02 22:50:00
7:50 PM,55.4,50.0,82,30.00,10.0,Calm,Calm,-,N/A,,Clear,0,2012-11-02 23:50:00
8:55 PM,59.0,48.2,67,30.02,10.0,SW,6.9,-,N/A,,Clear,220,2012-11-03 00:55:00
9:15 PM,59.0,48.2,67,30.03,10.0,SW,5.8,-,N/A,,Clear,220,2012-11-03 01:15:00
9:35 PM,59.0,48.2,67,30.03,10.0,SW,5.8,-,N/A,,Clear,220,2012-11-03 01:35:00
9:55 PM,59.0,48.2,67,30.04,10.0,SW,5.8,-,N/A,,Clear,230,2012-11-03 01:55:00
10:15 PM,59.0,50.0,72,30.04,10.0,SW,5.8,-,N/A,,Clear,220,2012-11-03 02:15:00
10:55 PM,59.0,50.0,72,30.04,10.0,SSW,8.1,-,N/A,,Clear,210,2012-11-03 02:55:00
11:15 PM,59.0,51.8,77,30.04,10.0,SSW,6.9,-,N/A,,Clear,210,2012-11-03 03:15:00
11:35 PM,59.0,51.8,77,30.04,10.0,SSW,6.9,-,N/A,,Clear,210,2012-11-03 03:35:00
11:55 PM,57.2,51.8,82,30.05,10.0,SSW,6.9,-,N/A,,Clear,200,2012-11-03 03:55:00